Location: Gajan
(43.0218°N, 1.1244°E)
Time: 16:35:44
(UTC+00:00)

X-37B - Pass Details

Date: 27 September 2021
Orbit: 385 x 389 km, 45.0° (Epoch: 17 October)

Event Time Altitude Azimuth Distance (km) Brightness Sun altitude
Exits shadow 03:21:50 20° 75° (ENE) 966 3.3 -26.8°
Drops below altitude 10° 03:22:57 10° 75° (ENE) 1,414 4.4 -26.7°
Sets 03:25:02 0° 75° (ENE) 2,271 5.8 -26.3°
